This demonstration page uses our WeatherBlox Daily Observations layout. Learn more.

Left ArrowRight Arrow

36.17497, -115.13722

Hourly Observations for May 16, 2017

Temp ( °F °C ) Dew Point ( °F °C ) Humidity (%) Winds ( mph kmh ) Pressure ( in mb ) Visibility ( mi km ) Precip ( " mm )
12:53 am 00:53 Cloudy 63 17.2 32 0 31 31 SW 8 13 29.78 1008 10 16 0.00 0.00
1:53 am 01:53 Mostly Clear 61 16.1 32 0 34 34 SE 6 9 29.78 1009 10 16 0.00 0.00
2:53 am 02:53 Mostly Clear 61 16.1 30 -1.1 31 31 Calm 29.78 1009 10 16 0.00 0.00
3:53 am 03:53 Clear 60 15.6 31 -0.6 33 33 W 3 6 29.78 1008 10 16 0.00 0.00
4:53 am 04:53 Clear 58 14.4 30 -1.1 35 35 WSW 6 9 29.79 1009 10 16 0.00 0.00
5:53 am 05:53 Sunny 57 13.9 29 -1.7 34 34 N 7 11 29.81 1009 10 16 0.00 0.00
6:53 am 06:53 Sunny 58 14.4 33 0.6 39 39 NNW 6 9 29.83 1010 10 16 0.00 0.00
7:53 am 07:53 Sunny 61 16.1 30 -1.1 31 31 SE 3 6 29.85 1011 10 16 0.00 0.00
8:53 am 08:53 Sunny 65 18.3 27 -2.8 24 24 VRB 6 9 29.86 1011 10 16 0.00 0.00
9:53 am 09:53 Sunny 66 18.9 28 -2.2 24 24 SSW 7 11 29.86 1011 10 16 0.00 0.00
10:53 am 10:53 Sunny 69 20.6 27 -2.8 21 21 VRB 6 9 29.86 1011 10 16 0.00 0.00
11:53 am 11:53 Sunny 72 22.2 23 -5 16 16 SSW 9 15 29.85 1011 10 16 0.00 0.00
12:53 pm 12:53 Sunny 73 22.8 22 -5.6 15 15 SE 8 13 29.83 1010 10 16 0.00 0.00
1:53 pm 13:53 Sunny 75 23.9 25 -3.9 15 15 S 10 17 29.81 1009 10 16 0.00 0.00
2:53 pm 14:53 Sunny 77 25 27 -2.8 16 16 undefined N/A 29.78 1009 10 16 0.00 0.00
3:53 pm 15:53 Partly Cloudy 78 25.6 28 -2.2 16 16 SW 12 19 29.76 1008 10 16 0.00 0.00
4:53 pm 16:53 Mostly Cloudy 78 25.6 25 -3.9 14 14 SSW 14 22 29.75 1007 10 16 0.00 0.00
5:53 pm 17:53 Sunny 77 25 23 -5 13 13 W 18 30 29.74 1007 10 16 0.00 0.00
6:53 pm 18:53 Sunny 76 24.4 25 -3.9 15 15 WSW 18 30 29.73 1007 10 16 0.00 0.00
7:53 pm 19:53 Clear 75 23.9 29 -1.7 18 18 WSW 13 20 29.73 1007 10 16 0.00 0.00
8:53 pm 20:53 Clear 74 23.3 29 -1.7 19 19 SW 10 17 29.73 1007 10 16 0.00 0.00
9:53 pm 21:53 Clear 71 21.7 31 -0.6 23 23 SW 18 30 29.74 1007 10 16 0.00 0.00
10:53 pm 22:53 Clear 70 21.1 33 0.6 26 26 WSW 17 28 29.73 1007 10 16 0.00 0.00
11:13 pm 23:13 Clear 70 21.1 33 0.6 26 26 SSW 15 24 29.62 1003 10 16 0.00 0.00
11:53 pm 23:53 Clear 68 20 34 1.1 28 28 SW 15 24 29.72 1006 10 16 0.00 0.00

Powered by AerisWeather